CZ-3B DEB, 42476

Orbit data source: Space-Track

CZ-3B DEB, 42476 is space debris in HEO originally from a launch on Mon, 19 Dec 2011 UTC launched from the Xichang Space Center, China (XSC). Debris objects in space refer to the collection of defunct objects orbiting the Earth. Examples of debris include non-operational satellites, rocket bodies, and fragments generated from explosions, collisions, or faulty payload assembly.

Loading next visibility...
Identifier
42476, 2011-077AR
Orbit
HEO
Country
Flag of CNCN / PRC
Related business
Manufacturer
CALT
Mission
Spacecraft
Bus & Motor
Unknown
Mass
Unknown
Launch date (UTC)
2011-12-19 (14 years ago)
Launch vehicle
Unknown
Launch site
Xichang Space Center, China (XSC)
Object type
Payload
Rocket body
Debris
Shape & HBR
Unknown shape, 0.1 m
Radar Cross Section
Medium (>0.1 m² and <1 m²)

Expand to show TLE details & history
Last TLE update: 7 months ago

TLE from 7 months ago
0 CZ-3B DEB
1 42476U 11077AR  25201.14562412 -.00000255  00000-0 -30800-3 0  9992
2 42476  26.4759  66.3090 7417570 271.1562  13.1285  1.88942128 70423
Epoch: 2025-07-20T03:29Z
TLE epoch observation values (Epoch: 2025-07-20T03:29:41.923Z)
Latitude
0.00009°
Longitude
75.80907°
Altitude
5,901.801 km
Speed
7.106 km/s
True Right ascension
04h 25m 37s
True Declination
0° 00' 00"
Sunlit
Object was in daylight at epoch
Visualization orbit readout
Latitude
Unknown
Longitude
Unknown
Altitude
Unknown
Speed
Unknown
Apparent Right ascension
Unknown
Apparent Declination
Unknown
Sunlit
N/A
Visualization observer readout
Local Sidereal Time
18:42:31
Azimuth
Unknown
Elevation
Unknown
Doppler factor
Unknown
Orbital elements
Apogee altitude
41,768.068 km
Perigee altitude
760.299 km
Semi-major axis
27,642.32 km
Eccentricity
0.74176
Inclination
26.4759°
RAAN
66.309°
Arg. of periapsis
271.1562°
True anomaly
88.35088°
Mean anomaly
13.1285°
Eccentric anomaly
41.02433°
Mean motion
0.47226 °/min
Orbital period
762.29 mins
BSTAR
-0.000308
Loading maneuver chart data...
Computing Atmospheric mass density...
Loading historical data...
Loading historical data...
Loading historical data...
Loading historical data...
Loading historical data...
Loading historical data...
Loading historical data...

Documentation

Showing up to 5 results
|